ARIANE 42P DEB, 44511

Orbit data source: Space-Track

ARIANE 42P DEB, 44511 is space debris in LEO originally from a launch on Mon, 10 Aug 1992 UTC launched from the French Guiana (FRGUI). Debris objects in space refer to the collection of defunct objects orbiting the Earth. Examples of debris include non-operational satellites, rocket bodies, and fragments generated from explosions, collisions, or faulty payload assembly.

Loading next visibility...
ARIANE 42P DEB details
Identifier
44511, 1992-052J
Orbit
LEO
Last TLE update9 hours ago
Origin
Flag of FRArianespace (FR)
ManufacturerArianeGroup
MissionSpacecraft
Bus & MotorUnknown
MassUnknown
Launch date (UTC)
1992-08-10 (32 years ago)
Launch vehicleUnknown
Launch site
French Guiana (FRGUI)
Object type
Payload
Rocket body
Debris
Shape & HBRUnknown
Radar Cross SectionSmall (<0.1 m²)

Expand to show TLE details & history

TLE from 9 hours ago
0 ARIANE 42P DEB
1 44511U 92052J   24361.04197955  .00002868  00000-0  12186-1 0  9992
2 44511  66.0654 322.8116 0056775 189.6365 170.3567 12.83470826251104
Epoch: 2024-12-26T01:00Z
Definitive object data (Epoch: 2024-12-26T01:00:27.033Z)
Latitude-0.00005°
Longitude-147.32812°
Altitude1,372.603 km
Speed7.153 km/s
True Right ascension21h 31m 14s
True Declination0° 00' 00"
Sunlit
Object was in daylight at TLE epoch
Visualization TLE readout
Latitude-28.95174°
Longitude-162.26788°
Altitude1,370.189 km
Speed7.158 km/s
Apparent Right ascension20h 57m 05s
Apparent Declination-33° 58' 11"
Sunlit
Object is in daylight
Visualization observer readout
Local Sidereal Time09:32:36
Azimuth52.786° ENE
Elevation-80.75°
Doppler factor1
Orbital elements
Apogee altitude1,369.846 km
Perigee altitude1,282.364 km
Semi-major axis7,704.242 km
Eccentricity0.0056775
Inclination66.0654°
RAAN322.8116°
Arg. of periapsis189.6365°
True anomaly170.46493°
Mean anomaly170.3567°
Eccentric anomaly170.41089°
Mean motion3.20958 °/min
BSTAR0.012186
Orbital period112.16 mins
Loading maneuver chart data...
Loading historical data...
Loading historical data...
Loading historical data...
Loading historical data...
Loading historical data...
Loading historical data...
Loading historical data...

ARIANE 42P DEB Visibility forecast

Observer location: undefined°, undefined

Span
Click to sort rows by Start time (UTC) header in descending order
Start Az.
Max El. time (UTC)
Max El. Az.
Max El.
End time (UTC)
End Az.
11 mins2024-12-26 21:41:27.565Z145.537° SSE2024-12-26 21:46:27.565Z104.039° ESE21.291°2024-12-26 21:52:27.565Z56.419° ENE
15 mins2024-12-26 23:34:27.565Z216.172° SW2024-12-26 23:41:27.565Z307.431° NW44.25°2024-12-26 23:49:27.565Z27.843° NE
11 mins2024-12-27 01:33:27.565Z282.196° WNW2024-12-27 01:38:27.565Z323.708° NNW20.256°2024-12-27 01:44:27.565Z11.52° NNE
7 mins2024-12-27 05:35:27.565Z2.773° NNE2024-12-27 05:38:27.565Z26.614° NE14.336°2024-12-27 05:42:27.565Z57.454° ENE
13 mins2024-12-27 07:30:27.565Z343.826° N2024-12-27 07:36:27.565Z53.259° ENE36.824°2024-12-27 07:43:27.565Z123.769° SE
12 mins2024-12-27 09:26:27.565Z308.618° NW2024-12-27 09:31:27.565Z257.915° W31.8°2024-12-27 09:38:27.565Z188.421° SSW
|